[[{"header":{"parameterUnit":"m.s-1","parameterCategory":1,"la1":30.2991,"la2":30.254,"lo1":-89.0895,"lo2":-89.0444,"dy":0.0017,"dx":0.0017,"nx":28,"ny":28,"refTime":"2025-03-16T09:00:00:Z","depth":0,"parameterNumber":2,"parameterNumberName":"U-component_of_WINDS"},"data":[0,0,0,0,0,0,0,0,0,0,0,0,0,0,0,0,0,0,0,0,0,0,0,0,0,0,0,0,0,0,0,0,0,0,0,0,0,0,0,0,0,0,0,0,0,0,0,0,0,0,0,0,0,0,0,0,0,0,1.0268,1.0269,0,1.0304,1.0305,1.0305,1.03,1.03,1.0299,1.0298,1.0336,1.0337,1.0339,0,0,0,0,0,0,0,0,0,0,0,0,0,1.0196,1.0198,1.0268,1.0269,1.0269,1.0304,1.0305,1.0305,1.03,1.03,1.0299,1.0298,1.0335,1.0337,1.0339,0,0,0,0,0,0,0,0,0,0,0,0,0,1.0229,1.0198,1.0268,1.0271,1.0272,1.0304,1.0305,1.0305,1.03,1.03,1.0299,1.0298,1.0335,1.0337,1.0339,1.0371,0,0,1.0346,1.0347,0,0,0,0,0,0,0,0,1.0227,1.0232,1.027,1.0271,1.0272,1.0297,1.0293,1.0327,1.0301,1.0289,1.0298,1.0297,1.0324,1.0327,1.0335,1.0373,1.0375,1.0346,1.0348,1.0349,1.035,0,0,0,0,0,0,0,1.0225,1.023,1.0283,1.0271,1.0272,1.0271,1.0274,1.0299,1.0311,1.029,1.029,1.0294,1.0324,1.0333,1.0336,1.0375,1.0346,1.0348,1.035,1.0351,1.0441,1.0442,0,0,0,0,0,0,1.0222,1.0229,1.0281,1.0284,1.0247,1.0273,1.0277,1.029,1.0311,1.0313,1.0295,1.0294,1.033,1.0334,1.0338,1.0376,1.0349,1.0351,1.0352,1.044,1.0441,1.0442,0,0,0,0,0,0,1.0221,1.0227,1.028,1.0256,1.0263,1.0275,1.0289,1.0291,1.03,1.0314,1.0316,1.0303,1.0329,1.0334,1.0363,1.0378,1.0352,1.0354,1.0439,1.044,1.0442,1.0454,0,0,0,0,0,0,1.0219,1.0226,1.0239,1.0256,1.0264,1.0305,1.029,1.0292,1.0304,1.0303,1.0322,1.0324,1.0329,1.0359,1.0365,1.038,1.0356,1.0438,1.0439,1.0441,1.0453,1.0456,1.0459,0,0,0,0,0,1.0216,1.0241,1.0239,1.0246,1.0279,1.0305,1.031,1.0314,1.0305,1.0318,1.0327,1.0324,1.0375,1.0362,1.0369,1.0385,1.0437,1.0439,1.0441,1.0451,1.0455,1.0459,0,0,0,0,0,0,1.0225,1.0243,1.0242,1.0273,1.0288,1.0304,1.032,1.0319,1.0336,1.0335,1.034,1.0344,1.0373,1.0382,1.0367,1.0417,1.0405,1.0408,1.041,1.0414,1.0417,1.0414,1.0358,0,0,0,0,0,1.023,1.0249,1.0265,1.0291,1.0298,1.0308,1.032,1.0322,1.0337,1.0344,1.0355,1.037,1.039,1.0403,1.0421,1.0454,1.0458,1.0468,1.0471,1.0474,1.0477,1.0495,1.0499,1.045,1.045,1.045,0,0,1.0242,1.0254,1.0266,1.0293,1.0305,1.0324,1.0313,1.0335,1.035,1.0347,1.0374,1.0383,1.0401,1.0431,1.0445,1.044,1.0492,1.0477,1.0479,1.048,1.0497,1.0502,1.0506,1.0451,1.0451,1.0451,0,0,1.0273,1.0285,1.0308,1.0319,1.0337,1.0343,1.0349,1.0366,1.0372,1.0399,1.0398,1.0416,1.0449,1.0462,1.0473,1.0509,1.0506,1.0515,1.0531,1.0548,1.0552,1.0556,1.0568,1.0573,1.0518,1.0518,1.0518,0,1.0285,1.0315,1.032,1.0341,1.0353,1.0351,1.0375,1.0386,1.0409,1.0417,1.041,1.0453,1.0464,1.0498,1.0506,1.0515,1.0522,1.0512,1.0551,1.0555,1.0558,1.057,1.0575,1.0519,1.0519,1.0519,1.0518,0,1.0329,1.035,1.0366,1.0388,1.0402,1.0424,1.0432,1.0446,1.0447,1.0454,1.0482,1.0496,1.0518,1.0526,1.0528,1.056,1.0556,1.055,1.0538,1.0564,1.0575,1.058,1.052,1.052,1.0519,1.0519,0,0,1.0367,1.0391,1.0397,1.0406,1.0426,1.0442,1.0464,1.0485,1.0497,1.0513,1.0531,1.056,1.0555,1.0567,1.057,1.0586,1.0613,1.0578,1.0579,1.0584,1.0649,1.0652,1.0658,1.0612,1.0612,1.0613,1.0647,0,1.0399,1.0439,1.0443,1.0478,1.0497,1.0496,1.0516,1.053,1.0537,1.0554,1.0563,1.0583,1.0575,1.0582,1.0597,1.0606,1.0626,1.0604,1.0629,1.063,1.0624,1.0664,1.0668,1.0699,1.0652,1.0652,1.0653,0,1.0443,1.046,1.0496,1.0513,1.0521,1.0539,1.0558,1.0575,1.0591,1.0595,1.0609,1.061,1.0633,1.062,1.0652,1.0637,1.0648,1.0654,1.0655,1.0658,1.0643,1.0666,1.0709,1.0714,1.066,1.066,1.0659,0,1.0466,1.0498,1.0524,1.0532,1.0553,1.0565,1.0574,1.0589,1.0601,1.0618,1.0626,1.0646,1.0657,1.0672,1.0679,1.0669,1.071,1.0698,1.0715,1.0714,1.0723,1.0722,1.0767,1.0731,1.0731,1.0731,1.073,0,1.0502,1.0524,1.0534,1.055,1.0576,1.0581,1.0606,1.0614,1.0628,1.0646,1.0646,1.0663,1.067,1.0688,1.0694,1.0719,1.0724,1.0728,1.0729,1.0728,1.0727,1.0735,1.0732,1.0732,1.0732,1.0731,1.0731,0,1.0531,1.0539,1.0567,1.0584,1.0589,1.0607,1.0621,1.0637,1.0644,1.0666,1.0672,1.0683,1.0704,1.0712,1.0738,1.0742,1.0771,1.0771,1.0766,1.0766,1.0782,1.078,1.0833,1.084,1.0799,1.0799,1.08,0,1.0553,1.057,1.0589,1.0601,1.061,1.0629,1.0641,1.0648,1.066,1.068,1.0693,1.0714,1.0731,1.0765,1.0776,1.0796,1.0795,1.0813,1.0798,1.0796,1.0795,1.0794,1.0795,1.0815,1.0815,1.0816,1.0816,0,1.0592,1.0595,1.0612,1.0631,1.0646,1.0661,1.0676,1.0686,1.0694,1.0709,1.073,1.0744,1.077,1.0791,1.0811,1.0821,1.082,1.0821,1.0825,1.0824,1.082,1.0822,1.0772,1.0819,1.0819,1.0819,1.0819,1.0818,1.0618,1.0633,1.0648,1.0668,1.068,1.0694,1.0709,1.0718,1.0736,1.0757,1.076,1.0783,1.0799,1.0826,1.0836,1.0855,1.085,1.0857,1.0859,1.086,1.0861,1.0817,1.0858,1.0858,1.0858,1.0858,1.0858,0,1.0656,1.0665,1.0683,1.0704,1.0719,1.0717,1.0734,1.0747,1.0767,1.0782,1.0798,1.0823,1.0843,1.0855,1.0876,1.0888,1.0888,1.0893,1.0892,1.0894,1.0864,1.0858,1.0892,1.0892,1.0892,1.0892,1.0892,1.0892,1.0677,1.0702,1.0707,1.0738,1.0748,1.077,1.078,1.0792,1.0804,1.0831,1.0848,1.0856,1.087,1.0891,1.0909,1.0913,1.092,1.0925,1.0928,1.09,1.0896,1.0893,1.0887,1.0927,1.0927,1.0956,1.0956,1.0956]},{"header":{"parameterUnit":"m.s-1","parameterCategory":1,"la1":30.2991,"la2":30.254,"lo1":-89.0895,"lo2":-89.0444,"dy":0.0017,"dx":0.0017,"nx":28,"ny":28,"refTime":"2025-03-16T09:00:00:Z","depth":0,"parameterNumber":3,"parameterNumberName":"V-component_of_WINDS"},"data":[0,0,0,0,0,0,0,0,0,0,0,0,0,0,0,0,0,0,0,0,0,0,0,0,0,0,0,0,0,0,0,0,0,0,0,0,0,0,0,0,0,0,0,0,0,0,0,0,0,0,0,0,0,0,0,0,0,0,-4.5278,-4.528,0,-4.5438,-4.544,-4.5442,-4.5456,-4.5454,-4.5453,-4.5451,-4.5614,-4.562,-4.5626,0,0,0,0,0,0,0,0,0,0,0,0,0,-4.4984,-4.4989,-4.5278,-4.528,-4.5282,-4.5438,-4.544,-4.5443,-4.5456,-4.5454,-4.5452,-4.545,-4.5612,-4.5619,-4.5627,0,0,0,0,0,0,0,0,0,0,0,0,0,-4.5124,-4.4991,-4.5277,-4.5308,-4.5312,-4.5438,-4.544,-4.5443,-4.5457,-4.5454,-4.5452,-4.5449,-4.561,-4.5619,-4.5627,-4.5734,0,0,-4.5655,-4.5659,0,0,0,0,0,0,0,0,-4.5116,-4.5135,-4.5301,-4.5306,-4.5311,-4.5425,-4.5397,-4.5541,-4.5457,-4.5402,-4.5451,-4.5448,-4.5553,-4.5567,-4.5602,-4.5741,-4.5748,-4.5656,-4.5661,-4.5665,-4.5667,0,0,0,0,0,0,0,-4.5107,-4.5128,-4.5341,-4.5303,-4.5309,-4.5313,-4.533,-4.5424,-4.549,-4.5406,-4.5408,-4.5427,-4.5555,-4.5594,-4.5606,-4.5751,-4.5655,-4.5663,-4.5669,-4.5672,-4.5989,-4.5992,0,0,0,0,0,0,-4.5091,-4.512,-4.5336,-4.5346,-4.5205,-4.5321,-4.534,-4.5391,-4.5489,-4.5501,-4.5429,-4.5427,-4.558,-4.5596,-4.5612,-4.5746,-4.5665,-4.5673,-4.5678,-4.5986,-4.599,-4.5993,0,0,0,0,0,0,-4.5085,-4.511,-4.533,-4.5234,-4.5262,-4.5328,-4.5385,-4.5395,-4.5434,-4.5506,-4.5518,-4.5456,-4.5578,-4.56,-4.5704,-4.5752,-4.5677,-4.5685,-4.5983,-4.5987,-4.5992,-4.6013,0,0,0,0,0,0,-4.5076,-4.5108,-4.5149,-4.5234,-4.5267,-4.5419,-4.5388,-4.54,-4.5449,-4.5448,-4.5534,-4.5546,-4.5578,-4.5691,-4.5713,-4.5763,-4.5692,-4.5979,-4.5985,-4.599,-4.6008,-4.6018,-4.6026,0,0,0,0,0,-4.5066,-4.5147,-4.5151,-4.5177,-4.5319,-4.5422,-4.544,-4.5476,-4.5453,-4.5495,-4.5542,-4.5543,-4.5743,-4.5702,-4.5727,-4.578,-4.5976,-4.5983,-4.599,-4.6004,-4.6016,-4.6026,0,0,0,0,0,0,-4.5064,-4.5159,-4.5164,-4.5275,-4.5341,-4.5424,-4.5478,-4.5486,-4.5559,-4.5555,-4.5595,-4.5614,-4.5719,-4.5759,-4.5712,-4.589,-4.5857,-4.5869,-4.586,-4.5871,-4.5879,-4.5868,-4.57,0,0,0,0,0,-4.5077,-4.5152,-4.5231,-4.5322,-4.5354,-4.5411,-4.5456,-4.5478,-4.5547,-4.5575,-4.5629,-4.5696,-4.5774,-4.5824,-4.59,-4.6014,-4.6034,-4.6063,-4.6071,-4.6078,-4.6089,-4.6156,-4.617,-4.6016,-4.6016,-4.6016,0,0,-4.5104,-4.5165,-4.521,-4.5323,-4.5376,-4.5454,-4.5434,-4.5516,-4.5575,-4.5587,-4.5691,-4.5733,-4.581,-4.5921,-4.5973,-4.5958,-4.6136,-4.6087,-4.6092,-4.6099,-4.6164,-4.6179,-4.6192,-4.6021,-4.602,-4.6019,0,0,-4.5193,-4.5246,-4.5329,-4.5383,-4.5465,-4.5502,-4.5522,-4.5605,-4.5634,-4.5739,-4.5751,-4.5821,-4.5953,-4.6009,-4.6055,-4.6168,-4.6174,-4.6191,-4.6238,-4.6302,-4.6314,-4.6325,-4.6369,-4.6384,-4.6201,-4.6202,-4.6202,0,-4.5216,-4.5334,-4.537,-4.5454,-4.5505,-4.5521,-4.5606,-4.5657,-4.5758,-4.5793,-4.5775,-4.5945,-4.5998,-4.6124,-4.6152,-4.6187,-4.6213,-4.6183,-4.631,-4.6321,-4.6332,-4.6374,-4.639,-4.6203,-4.6203,-4.6203,-4.6203,0,-4.536,-4.5442,-4.5499,-4.5599,-4.5656,-4.574,-4.579,-4.5843,-4.586,-4.59,-4.6007,-4.6072,-4.6162,-4.6193,-4.621,-4.6323,-4.6312,-4.6301,-4.627,-4.6348,-4.6388,-4.6404,-4.6206,-4.6205,-4.6205,-4.6204,0,0,-4.5453,-4.5573,-4.5594,-4.5641,-4.5733,-4.5797,-4.5882,-4.5972,-4.6018,-4.6088,-4.6162,-4.6275,-4.6267,-4.6319,-4.6342,-4.6399,-4.6489,-4.6382,-4.6385,-4.6402,-4.6621,-4.663,-4.6647,-4.6492,-4.6495,-4.6498,-4.6615,0,-4.5555,-4.5708,-4.5745,-4.5876,-4.5954,-4.5971,-4.6046,-4.6111,-4.6151,-4.6223,-4.6266,-4.6347,-4.6329,-4.6361,-4.6417,-4.6466,-4.6534,-4.6457,-4.6563,-4.6567,-4.6546,-4.6668,-4.6677,-4.6785,-4.6631,-4.6633,-4.6635,0,-4.5694,-4.5769,-4.5909,-4.5994,-4.6028,-4.6095,-4.6182,-4.6249,-4.6324,-4.6349,-4.6409,-4.6427,-4.6518,-4.6481,-4.6608,-4.6556,-4.6601,-4.6632,-4.6637,-4.665,-4.6607,-4.6687,-4.6819,-4.6837,-4.666,-4.6658,-4.6656,0,-4.5751,-4.5887,-4.5989,-4.6028,-4.6129,-4.6176,-4.622,-4.6293,-4.6345,-4.6421,-4.6456,-4.654,-4.6587,-4.6652,-4.6694,-4.6662,-4.6819,-4.6784,-4.6844,-4.6843,-4.6878,-4.6876,-4.7022,-4.6903,-4.6902,-4.6902,-4.6902,0,-4.5863,-4.5948,-4.6017,-4.608,-4.6178,-4.6219,-4.6314,-4.6358,-4.6423,-4.6496,-4.6515,-4.6583,-4.6632,-4.6707,-4.674,-4.6843,-4.6863,-4.6887,-4.6895,-4.6887,-4.6884,-4.6918,-4.6913,-4.6906,-4.6906,-4.6905,-4.6904,0,-4.5943,-4.5992,-4.6106,-4.6193,-4.6217,-4.6285,-4.636,-4.6422,-4.6463,-4.6555,-4.6579,-4.6643,-4.6733,-4.678,-4.6892,-4.6914,-4.703,-4.7032,-4.7005,-4.7009,-4.7068,-4.7063,-4.7244,-4.7271,-4.713,-4.7132,-4.7133,0,-4.6012,-4.6079,-4.6174,-4.6225,-4.6271,-4.6352,-4.6406,-4.645,-4.6506,-4.6598,-4.665,-4.6741,-4.6817,-4.696,-4.7016,-4.7103,-4.7109,-4.7166,-4.7122,-4.7113,-4.7114,-4.711,-4.7119,-4.7175,-4.7176,-4.7177,-4.7178,0,-4.6131,-4.6153,-4.6231,-4.6319,-4.6384,-4.6454,-4.6524,-4.6565,-4.662,-4.6682,-4.6775,-4.6834,-4.6949,-4.704,-4.7132,-4.7177,-4.7189,-4.7192,-4.7211,-4.7204,-4.7187,-4.72,-4.703,-4.7188,-4.7187,-4.7186,-4.7185,-4.7185,-4.621,-4.6272,-4.635,-4.6437,-4.6494,-4.656,-4.6624,-4.6674,-4.6752,-4.6851,-4.6871,-4.697,-4.7046,-4.717,-4.7219,-4.7298,-4.7286,-4.7312,-4.732,-4.7327,-4.7331,-4.7172,-4.7314,-4.7314,-4.7313,-4.7313,-4.7313,0,-4.6333,-4.6384,-4.6464,-4.6562,-4.6632,-4.6635,-4.6714,-4.6772,-4.6859,-4.6929,-4.7004,-4.7112,-4.7201,-4.7265,-4.7357,-4.7408,-4.7415,-4.743,-4.7428,-4.744,-4.7334,-4.731,-4.7423,-4.7423,-4.7423,-4.7423,-4.7423,-4.7423,-4.6404,-4.651,-4.6541,-4.6677,-4.6727,-4.6825,-4.687,-4.6932,-4.6988,-4.7109,-4.7184,-4.7225,-4.7294,-4.7391,-4.7473,-4.749,-4.7524,-4.754,-4.7557,-4.7458,-4.7446,-4.7435,-4.7413,-4.7546,-4.7546,-4.7657,-4.7658,-4.7658]}]]